Weather History for KLAF - November, 2014

Change the Weather History Date:

Saturday, November 15, 2014

  Actual Average Record
Temperature  
Mean Temperature 24 °F 43 °F  
Max Temperature 33 °F 52 °F 71 °F (1964)
Min Temperature 14 °F 35 °F 14 °F (2014)
Degree Days  
Heating Degree Days 41 22  
Month to date heating degree days 396 282  
Since 1 July heating degree days 943 716  
Cooling Degree Days 0 0  
Month to date cooling degree days 0 0  
Year to date cooling degree days 743 982  
Moisture  
Dew Point 16 °F    
Average Humidity 72    
Maximum Humidity 96    
Minimum Humidity 47    
Precipitation  
Precipitation 0.00 in 0.11 in 1.41 in (1968)
Month to date precipitation 0.61 1.45  
Year to date precipitation 36.47 32.55  
Sea Level Pressure  
Sea Level Pressure 30.36 in    
Wind  
Wind Speed 2 mph (SW)    
Max Wind Speed 12 mph    
Max Gust Speed 16 mph    
Visibility 10 miles    
Events      
T = Trace of Precipitation, MM = Missing Value Source: NWS Daily Summary

Daily Weather History Graph

Daily Weather History Graph

Search for Another Location

Airport or City:

Trip Planner

Search our weather history database for the weather conditions in past years. The results will help you decide how hot, cold, wet, or windy it might be!

Date:

Astronomy

Nov. 15, 2014 Rise Set
Actual Time 7:33 AM EST 5:30 PM EST
Civil Twilight 7:04 AM EST 5:59 PM EST
Nautical Twilight 6:31 AM EST 6:32 PM EST
Astronomical Twilight 5:59 AM EST 7:04 PM EST
Moon 12:44 AM EST (11/15) 1:54 PM EST (11/15)
Length of Visible Light 10h 55m
Length of Day
9h 56m
Last Quarter, 40% of the Moon is Illuminated
Nov 15
Last Quarter
Nov 22
New
Nov 29
First Quarter
Dec 6
Full
Dec 14
Last Quarter

Hourly Weather History & Observations

Time (EST) Temp. Windchill Dew Point Humidity Pressure Visibility Wind Dir Wind Speed Gust Speed Precip Events Conditions
12:54 AM 18.0 °F - 14.0 °F 84% 30.41 in 10.0 mi Calm Calm - N/A   Clear
1:54 AM 17.1 °F - 12.9 °F 84% 30.41 in 10.0 mi Calm Calm - N/A   Clear
2:54 AM 16.0 °F - 14.0 °F 92% 30.42 in 10.0 mi Calm Calm - N/A   Clear
3:54 AM 16.0 °F - 12.9 °F 88% 30.41 in 9.0 mi Calm Calm - N/A   Clear
4:54 AM 16.0 °F - 14.0 °F 92% 30.42 in 9.0 mi Calm Calm - N/A   Clear
5:54 AM 15.1 °F - 12.9 °F 91% 30.41 in 9.0 mi Calm Calm - N/A   Clear
6:54 AM 14.0 °F - 12.0 °F 92% 30.43 in 8.0 mi Calm Calm - N/A   Clear
7:54 AM 16.0 °F - 12.9 °F 88% 30.45 in 8.0 mi Calm Calm - N/A   Scattered Clouds
8:54 AM 19.9 °F - 16.0 °F 85% 30.45 in 10.0 mi Calm Calm - N/A   Clear
9:54 AM 24.1 °F 19.7 °F 18.0 °F 77% 30.45 in 10.0 mi WSW 3.5 mph - N/A   Clear
10:54 AM 28.0 °F 21.7 °F 18.0 °F 66% 30.43 in 10.0 mi SW 5.8 mph - N/A   Clear
11:54 AM 30.0 °F 22.4 °F 16.0 °F 56% 30.41 in 10.0 mi SSW 8.1 mph - N/A   Clear
12:54 PM 33.1 °F 25.5 °F 17.1 °F 52% 30.38 in 10.0 mi SW 9.2 mph - N/A   Clear
1:54 PM 32.0 °F 25.6 °F 16.0 °F 52% 30.36 in 10.0 mi WSW 6.9 mph - N/A   Clear
2:54 PM 32.0 °F - 15.1 °F 50% 30.32 in 10.0 mi Calm Calm - N/A   Clear
3:54 PM 33.1 °F 28.7 °F 16.0 °F 50% 30.30 in 10.0 mi SW 4.6 mph - N/A   Clear
4:54 PM 32.0 °F - 16.0 °F 52% 30.30 in 10.0 mi Calm Calm - N/A   Clear
5:54 PM 30.0 °F - 18.0 °F 61% 30.29 in 10.0 mi Calm Calm - N/A   Partly Cloudy
6:54 PM 30.0 °F - 19.0 °F 64% 30.29 in 10.0 mi Calm Calm - N/A   Mostly Cloudy
7:54 PM 30.0 °F - 19.0 °F 64% 30.30 in 10.0 mi Calm Calm - N/A   Overcast
8:54 PM 28.9 °F - 19.9 °F 69% 30.27 in 10.0 mi Calm Calm - N/A   Overcast
9:54 PM 28.9 °F - 21.9 °F 75% 30.26 in 10.0 mi Calm Calm - N/A   Overcast
10:54 PM 30.0 °F 26.5 °F 19.9 °F 66% 30.27 in 10.0 mi South 3.5 mph - N/A   Overcast
11:54 PM 28.9 °F - 19.9 °F 69% 30.25 in 10.0 mi Calm Calm - N/A   Overcast